Location: Unspecified
(45.3712°N, 0.6436°E)
Time: 16:54:00
(UTC+02:00)

Tiangong 2 - Visible Passes

Search period start: 16 July 2018 00:00
Search period end: 26 July 2018 00:00
Orbit: 386 x 394 km, 42.8° (Epoch: 16 July)

Date Brightness Start Highest point End Pass type
(mag) Time Alt. Az. Time Alt. Az. Time Alt. Az.
16 Jul 3.3 00:37:22 10° W 00:38:23 18° WSW 00:38:23 18° WSW visible
16 Jul 1.2 23:39:42 10° W 23:42:49 51° S 23:43:13 46° SSE visible
17 Jul 1.3 22:42:04 10° WSW 22:45:11 53° S 22:48:00 12° ESE visible
18 Jul 3.0 00:18:54 10° W 00:20:19 21° WSW 00:20:19 21° WSW visible
18 Jul 1.6 23:21:11 10° W 23:24:13 42° SSW 23:25:03 34° SSE visible
19 Jul 1.4 22:23:30 10° W 22:26:37 50° S 22:29:43 10° ESE visible
20 Jul 3.1 00:00:33 10° WSW 00:02:04 19° SW 00:02:04 19° SW visible
20 Jul 2.1 23:02:42 10° W 23:05:35 31° SSW 23:06:46 23° SSE visible
21 Jul 3.4 23:42:31 10° WSW 23:43:48 14° SW 23:43:48 14° SW visible
22 Jul 2.8 22:44:20 10° WSW 22:46:51 21° SSW 22:48:32 15° SSE visible
24 Jul 3.5 22:26:22 10° WSW 22:28:02 13° SSW 22:29:41 10° S visible
